Truth Or Consequences, NM

3:13 PM MDT on June 28, 2017 (GMT -0600)
Truth Or Consequences Municipal

Weather History for KTCS - June, 2013

Change the Weather History Date:

Friday, June 7, 2013

  Actual Average Record
Temperature  
Mean Temperature 77 °F -  
Max Temperature 90 °F 91 °F 98 °F (2001)
Min Temperature 64 °F 61 °F 54 °F (2003)
Cooling Degree Days 12    
Month to date cooling degree days 103  
Year to date cooling degree days 351  
Since 1 June cooling degree days 103  
Growing Degree Days 27 (Base 50)    
Moisture  
Dew Point 39 °F    
Average Humidity 25    
Maximum Humidity 38    
Minimum Humidity 12    
Precipitation  
Precipitation T in - 0.33 in (1997)
Month to date precipitation T  
Year to date precipitation 0.28  
Sea Level Pressure  
Sea Level Pressure 29.74 in    
Wind  
Wind Speed 10 mph (SSW)    
Max Wind Speed 32 mph    
Max Gust Speed 54 mph    
Visibility 10 miles    
Events Thunderstorm    
T = Trace of Precipitation, MM = Missing Value Source: NWS Daily Summary

Daily Weather History Graph

Daily Weather History Graph

Search for Another Location

Airport or City:

Trip Planner

Search our weather history database for the weather conditions in past years. The results will help you decide how hot, cold, wet, or windy it might be!

Date:

Astronomy

Jun. 07, 2013 Rise Set
Actual Time 5:59 AM MDT 8:16 PM MDT
Civil Twilight 5:30 AM MDT 8:45 PM MDT
Nautical Twilight 4:55 AM MDT 9:20 PM MDT
Astronomical Twilight 4:17 AM MDT 9:58 PM MDT
Moon 5:20 AM MDT (6/7) 7:36 PM MDT (6/7)
Length of Visible Light 15h 14m
Length of Day
14h 17m
Waning Crescent, 1% of the Moon is Illuminated
Jun 7
Waning Crescent
Jun 8
New
Jun 16
First Quarter
Jun 23
Full
Jun 29
Last Quarter

Hourly Weather History & Observations

Time (MDT) Temp. Dew Point Humidity Pressure Visibility Wind Dir Wind Speed Gust Speed Precip Events Conditions
12:53 AM 75.0 °F 37.0 °F 25% 29.75 in 10.0 mi South 3.5 mph - N/A   Clear
1:53 AM 73.0 °F 37.0 °F 27% 29.73 in 10.0 mi SSW 8.1 mph - N/A   Clear
2:53 AM 72.0 °F 37.0 °F 28% 29.75 in 10.0 mi NW 3.5 mph - N/A   Clear
3:53 AM 69.1 °F 35.1 °F 29% 29.74 in 10.0 mi WNW 4.6 mph - N/A   Clear
4:53 AM 66.0 °F 34.0 °F 30% 29.77 in 10.0 mi North 3.5 mph - N/A   Clear
5:53 AM 64.9 °F 35.1 °F 33% 29.79 in 10.0 mi Calm Calm - N/A   Clear
6:53 AM 66.0 °F 34.0 °F 30% 29.83 in 10.0 mi Calm Calm - N/A   Clear
7:53 AM 72.0 °F 39.0 °F 30% 29.82 in 10.0 mi South 6.9 mph - N/A   Clear
8:53 AM 73.9 °F 46.0 °F 37% 29.83 in 10.0 mi SSE 9.2 mph - N/A   Clear
9:53 AM 78.1 °F 46.0 °F 32% 29.81 in 10.0 mi South 11.5 mph 18.4 mph N/A   Clear
10:53 AM 82.0 °F 48.9 °F 31% 29.78 in 10.0 mi South 16.1 mph 23.0 mph N/A   Clear
11:53 AM 84.9 °F 48.0 °F 28% 29.75 in 10.0 mi South 12.7 mph - N/A   Clear
12:53 PM 89.1 °F 48.0 °F 24% 29.72 in 10.0 mi South 13.8 mph 24.2 mph N/A   Clear
1:53 PM 88.0 °F 44.1 °F 22% 29.69 in 10.0 mi South 19.6 mph 27.6 mph N/A   Clear
2:53 PM 84.9 °F 45.0 °F 25% 29.70 in 10.0 mi South 17.3 mph 29.9 mph N/A Thunderstorm Partly Cloudy
3:09 PM 84.2 °F 44.6 °F 25% 29.99 in 10.0 mi SSW 12.7 mph - N/A   Scattered Clouds
3:25 PM 82.4 °F 30.2 °F 15% 30.00 in 6.0 mi SW 21.9 mph 54.1 mph N/A   Haze
3:53 PM 82.0 °F 32.0 °F 16% 29.70 in 10.0 mi South 11.5 mph 23.0 mph 0.00 in   Scattered Clouds
4:53 PM 87.1 °F 28.9 °F 12% 29.68 in 10.0 mi WSW 11.5 mph - N/A   Clear
5:53 PM 86.0 °F 32.0 °F 14% 29.65 in 10.0 mi SW 20.7 mph 32.2 mph N/A   Clear
6:53 PM 84.9 °F 33.1 °F 16% 29.64 in 10.0 mi South 19.6 mph 26.5 mph N/A   Clear
7:53 PM 81.0 °F 35.1 °F 19% 29.62 in 10.0 mi South 15.0 mph 23.0 mph N/A   Clear
8:53 PM 78.1 °F 37.9 °F 24% 29.64 in 10.0 mi South 10.4 mph - N/A   Clear
9:53 PM 75.9 °F 39.0 °F 26% 29.65 in 10.0 mi South 15.0 mph 20.7 mph N/A   Clear
10:53 PM 75.0 °F 39.0 °F 27% 29.66 in 10.0 mi South 9.2 mph - N/A   Clear
11:53 PM 71.1 °F 39.9 °F 32% 29.68 in 10.0 mi NE 5.8 mph - N/A   Clear